Regional Weather Roundup
Issued by NWS

Home | Current Version | Previous Version | Graphics & Text | Print | Product List | Glossary On
Versions: 1 2 3 4 5 6 7 8 9 10 11 12 13 14 15 16 17 18 19 20 21 22 23 24 25 26 27 28 29 30 31 32 33 34 35 36 37 38 39 40 41 42 43 44 45 46 47 48 49 50
000
ASUS44 KMEG 170300
RWRTN
TENNESSEE HOURLY STATE WEATHER ROUNDUP
NATIONAL WEATHER SERVICE MEMPHIS TN
1000 PM CDT TUE SEP 16 2014

TNZ002-004-019-021-049-052-054-088>092-170400-
WEST TENNESSEE

CITY           SKY/WX    TMP DP  RH WIND       PRES   REMARKS
MEMPHIS INTL   PTCLDY    69  61  75 NE8G16    30.07R
NWS MEMPHIS      N/A     68 N/A N/A MISG        N/A
JACKSON        CLOUDY    65  61  87 CALM      30.07S
DYERSBURG      CLOUDY    66  50  55 NE8       30.09R
UNION CITY     CLOUDY    61  55  82 NE8       30.08S
PARIS          CLOUDY    59  54  82 N5        30.10R
LEXINGTON      CLOUDY    61  59  94 N5        30.07R
SAVANNAH       CLEAR     63  63 100 N5        30.07R
$$

TNZ008-025-027-028-033-062-065-066-170400-
NORTH MIDDLE TENNESSEE

CITY           SKY/WX    TMP DP  RH WIND       PRES   REMARKS
NASHVILLE      PTCLDY    61  57  87 NW3       30.07S
CLARKSVILLE    CLEAR     57  53  86 N6        30.08S
COOKEVILLE     CLOUDY    59  57  94 CALM      30.06S VSB 0
CROSSVILLE     CLEAR     61  58  90 CALM      30.08F FOG
$$

TNZ061-075-076-078-094-096-097-170400-
SOUTH MIDDLE TENNESSEE

CITY           SKY/WX    TMP DP  RH WIND       PRES   REMARKS
FAYETTEVILLE   CLEAR     64  63  94 N5        30.06S
TULLAHOMA      MOCLDY    63  61  94 CALM      30.08R
WINCHESTER     CLOUDY    66  64  94 CALM      30.07S
SHELBYVILLE    CLOUDY    66  64  94 CALM      30.07S
$$

TNZ017-018-042-046-047-170400-
NORTHEAST TENNESSEE

CITY           SKY/WX    TMP DP  RH WIND       PRES   REMARKS
TRI CITIES     PTCLDY    64  58  80 CALM      30.05S
ELIZABETHTON   PTCLDY    63  61  94 CALM      30.05S
$$

TNZ012-013-036-069-073-074-170400-
CENTRAL EAST TENNESSEE

CITY           SKY/WX    TMP DP  RH WIND       PRES   REMARKS
KNOXVILLE      MOCLDY    68  61  78 CALM      30.03S
OAK RIDGE      CLEAR     64  61  90 CALM      30.06S
GATLINBURG     CLOUDY    66  63  88 CALM      30.04S
$$

TNZ083-085-099-170400-
SOUTHEAST TENNESSEE

CITY           SKY/WX    TMP DP  RH WIND       PRES   REMARKS
CHATTANOOGA    MOCLDY    72  65  78 N9        30.04R
$$

SKY/WX REPORTED AS FAIR MEANS FEW OR NO CLOUDS BELOW
12 THOUSAND FEET.




USA.gov is the U.S. government's official web portal to all federal, state and local government web resources and services.